COSMOS 1812

Last updated on Sat Mar 07 2026 00:02:14 GMT+0000 (Coordinated Universal Time)

1 17295U 87003A 26065.13056457 .12040831 -12829-5 14059-3 0 9991 2 17295 82.4628 199.5909 0011771 272.0058 87.9898 16.49575463143916
UTC large
Height (km)
Speed (km/s)
/
Latitude / Longitude
Inclination (degrees)
Orbital Period (minutes)
Azimuth
Elevation
Range (km)
Doppler Factor

Next 0 passes for location: London (51.5072 / 0.1276)

Sorry there are no passes over London.
COSMOS 1812